Tracking 19192 objects as of 21-Jun-2018
HD Live streaming from Space Station
objects crossing your sky now

FENGYUN 1C DEB

Track FENGYUN 1C DEB now!
10-day predictions


NORAD ID: 41002
Int'l Code: 1999-025EXG
Perigee: 836.3 km
Apogee: 1,049.4 km
Inclination: 98.2 °
Period: 103.7 minutes
Semi major axis: 7313 km
RCS: Unknown
Launch date: May 10, 1999
Source: People's Republic of China (PRC)
Launch site: Taiyaun Space Center, China (TSC)

Note: This is SATELLITE DEBRIS
aabbcc
Your satellite tracking list
Your tracking list is empty




NASA's NSSDC Master Catalog

Two Line Element Set (TLE):
1 41002U 99025EXG 18171.43185920  .00000596  00000-0  48799-3 0  9992
2 41002  98.1731  36.4243 0145691 190.2333 169.5853 13.87970035369892
Source of the keplerian elements: AFSPC